{"data":{"norad_id":63725,"epoch":"2026-05-25T03:03:07.724736Z","epoch_age_seconds":74595,"freshness":"FRESH","line1":"1 63725U 25088B   26145.12717274  .00001334  00000+0  20379-3 0  9999","line2":"2 63725  51.9019 127.6209 0000287  40.0190 320.0793 14.79952186 59110","mean_motion":14.79952186,"eccentricity":2.87e-5,"inclination_deg":51.9019,"raan_deg":127.6209,"arg_perigee_deg":40.019,"mean_anomaly_deg":320.0793,"bstar":0.00020379,"rev_number":5911,"period_min":97.300440758969,"perigee_km":629.27394591535,"apogee_km":629.67618284785,"semimajor_km":7007.6120643816,"source":"CELESTRAK","updated_at":"2026-05-25T13:38:03.924196Z"}}